Voltar ao catálogo

COSMOS 1275 DEB

AtivoPO
NORAD 42141·DEBRIS·🇷🇺 Russia

Lançado Jun 4, 1981 de Plesetsk Cosmodrome

Loading…

Próximas Passagens (próximas 24 horas)

TLE

ObsoletoSource: Space-Track

Época: Sep 1, 2026, 10:20 UTC

1 42141U 81053RD  26244.43117250  .00002486  00000-0  87041-3 0  9993
2 42141  82.7741 143.3987 0022878 141.5367 218.7458 14.34667925142966

Acompanhe COSMOS 1275 DEB em tempo real com AllMySat

Download on the App Store